Location: Bwlchygroes
(51.9944°N, 4.5669°W)
Time: 19:55:36
(UTC+00:00)

Daily predictions for brighter satellites

Satellite Brightness Start Highest point End
(mag) Time Altitude Azimuth Time Altitude Azimuth Time Altitude Azimuth
NOSS 3-4 (A) 4.3 21:20:22 10° NW 21:26:57 55° NNE 21:34:15 10° ESE
NOSS 3-4 (C) 4.3 21:20:28 10° NW 21:27:03 55° NNE 21:34:22 10° ESE
CZ-4B DEB 4.5 21:24:14 10° SSE 21:27:34 68° ENE 21:30:56 10° N
Cosmos 1455 3.5 21:25:51 10° NNW 21:29:28 39° W 21:33:04 10° SSW
Alouette 2 Rocket 3.8 21:26:41 10° NNW 21:30:25 71° WSW 21:35:20 10° S
Cosmos 2322 Rocket 3.1 21:25:11 10° SW 21:30:40 54° NW 21:36:13 10° NNE
Cosmos 1758 Rocket 3.8 21:28:45 10° SSW 21:33:15 78° WNW 21:37:46 10° N
Cosmos 2237 4.5 21:30:32 10° SW 21:36:17 78° WNW 21:42:04 10° NNE
Cosmos 1328 3.9 21:32:58 10° SSW 21:36:56 83° WNW 21:40:56 10° N
USA 245 3.9 21:33:38 10° S 21:37:04 55° W 21:41:27 10° NNW
NOSS 3-3 (A) 4.3 21:33:43 10° S 21:39:12 42° ESE 21:45:22 10° NE
NOSS 3-3 (C) 4.4 21:33:49 10° S 21:39:19 42° ESE 21:45:29 10° NE
Cosmos 1538 Rocket 4.3 21:41:48 10° S 21:46:57 51° ESE 21:52:06 10° NNE
Cosmos 1703 3.9 21:43:51 10° SSW 21:47:40 57° WNW 21:51:31 10° N
Cosmos 2084 3.8 21:47:31 10° NW 21:51:57 61° SW 21:56:03 12° SSE
COSMOS 2428 2.9 21:47:59 10° S 21:53:29 53° ESE 21:59:00 10° NE
ATLAS 2AS CENTAUR R/B 3.2 21:47:15 10° NW 21:55:00 67° NE 22:02:05 10° ESE
Cosmos 2181 Rocket 4.1 21:48:46 10° NNW 21:55:10 84° W 22:01:25 10° S
Cosmos 2322 3.7 21:50:27 10° SSW 21:56:11 84° ESE 22:01:56 10° NNE
Cosmos 1953 Rocket 3.6 21:52:11 10° SSW 21:56:30 80° W 22:00:52 10° N
ATLAS CENTAUR R/B 1.6 21:54:11 10° NW 21:57:47 49° SW 22:00:56 12° SSE
Cosmos 1869 3.6 21:55:06 10° N 21:59:02 56° ENE 22:02:34 13° SSE
BREEZE-M DEB (TANK) 2.2 21:53:37 10° W 22:00:11 65° S 22:02:56 10° ESE
Cosmos 773 Rocket 4.1 21:55:08 10° SSW 22:00:27 90° ENE 22:05:47 10° NNE
Cosmos 2074 Rocket 4.3 21:54:52 10° SSE 22:00:51 51° E 22:06:50 10° NNE
ERS-1 Rocket 3.3 21:57:15 10° S 22:02:16 67° WSW 22:07:19 10° NNW
Cosmos 1842 Rocket 3.6 21:58:14 10° N 22:02:37 74° E 22:06:35 12° SSE
Cosmos 2237 Rocket 3.2 21:59:39 10° SSE 22:04:23 29° ESE 22:09:12 10° NE
Meteor 1-27 4.4 21:58:56 10° NNW 22:04:40 77° W 22:10:27 10° S
Cosmos 2219 Rocket 2.2 21:59:26 10° SSW 22:05:00 70° ESE 22:10:36 10° NE
Cosmos 1818 4.1 22:00:29 10° SW 22:05:53 65° NW 22:11:20 10° NE
SPOT 5 3.1 22:02:40 10° S 22:07:39 68° WSW 22:12:24 10° NNW
Cosmos 2360 Rocket 3.1 22:02:20 10° SW 22:07:51 52° NW 22:13:25 10° NNE
Cosmos 2333 4.3 22:02:24 10° SSW 22:08:04 85° WNW 22:13:51 10° NNE
USA 215 3.5 22:02:04 10° ENE 22:08:22 47° SE 22:14:38 10° SSW
Cosmos 2344 4.4 22:05:14 10° SSE 22:11:17 27° ESE 22:17:38 10° ENE
CZ-4C R/B 4.2 22:09:30 10° NW 22:15:23 36° NNE 22:22:17 10° E
GEOS 3 Rocket 3.7 22:12:56 10° NE 22:18:23 86° SE 22:23:47 10° SW
ATLAS 5 CENTAUR R/B 4.0 22:17:07 10° NW 22:18:27 14° NNW 22:19:44 10° NNE
Cosmos 2333 Rocket 2.2 22:13:28 10° SSW 22:19:10 89° ESE 22:24:57 10° NNE
Cosmos 1315 Rocket 3.6 22:17:35 10° NNW 22:21:32 48° W 22:25:29 10° S
ALOS 2 4.4 22:19:22 10° ESE 22:22:43 22° ENE 22:26:03 10° N
Cosmos 2056 Rocket 4.1 22:22:32 10° NNW 22:27:51 54° ENE 22:32:26 14° SE
Cosmos 1892 3.0 22:26:25 16° SSE 22:29:11 50° E 22:32:54 10° NNE
NOSS 0 Rocket 4.1 22:23:19 10° S 22:29:15 53° ESE 22:35:15 10° NE
Meteor 2-2 Rocket 4.4 22:25:04 10° NNW 22:30:55 80° W 22:35:55 14° S
BREEZE-M DEB 4.5 22:28:04 10° W 22:31:58 49° SSW 22:45:39 10° SE
MTI 3.7 22:29:39 10° NNE 22:32:45 64° ESE 22:34:54 18° S
Cosmos 1606 4.4 22:31:33 10° NNE 22:34:45 23° ENE 22:37:25 13° ESE
Cosmos 2278 Rocket 2.4 22:30:31 10° NW 22:36:10 66° WSW 22:40:40 16° SSE
ATLAS 5 CENTAUR R/B 2.8 22:32:13 10° WSW 22:36:24 47° NNW 22:41:14 10° NE
Cosmos 2297 4.3 22:33:07 10° NNW 22:38:44 51° NE 22:43:52 12° SE
Cosmos 1943 Rocket 3.6 22:34:11 10° NNW 22:39:15 31° NE 22:44:16 10° ESE
Cosmos 1408 3.2 22:37:56 20° SSE 22:40:01 40° E 22:43:24 10° NNE
USA 267 3.3 22:36:39 12° SE 22:42:49 70° SW 22:49:24 10° WNW
Cosmos 1680 Rocket 3.8 22:39:45 14° S 22:44:16 54° ESE 22:49:28 10° NNE
Cosmos 371 Rocket 4.4 22:42:42 10° NNW 22:47:16 38° NE 22:51:21 12° ESE
Cosmos 2221 3.3 22:44:16 10° NNW 22:48:30 48° W 22:52:05 14° SSW
SL-16 R/B 3.4 22:46:35 16° SE 22:49:33 25° ESE 22:54:04 10° NE
CREW DRAGON DEMO-1 DEB 4.3 22:53:16 20° ESE 22:53:16 20° ESE 22:54:52 10° E
Lacrosse 5 rocket 2.4 22:48:28 10° WNW 22:52:28 44° N 22:56:14 10° E
Terra 3.1 22:53:51 10° SSW 22:58:03 33° W 23:02:23 10° NNW
Cosmos 2184 Rocket 4.3 22:53:57 10° SSW 23:00:10 70° WNW 23:06:30 10° N
In-Cosmos 22 Rocket 4.1 22:56:02 12° SSW 23:01:01 80° WNW 23:06:24 10° NNE
Cosmos 923 Rocket 4.0 22:56:55 10° SSW 23:02:11 90° E 23:07:31 10° NNE
Cosmos 1328 Rocket 4.5 22:59:18 10° N 23:03:20 37° ENE 23:06:06 18° SE
Cosmos 2058 3.2 23:03:48 14° SSW 23:07:15 67° WNW 23:11:23 10° N
Okean 3 Rocket 4.2 23:07:35 21° SSE 23:10:06 43° E 23:14:18 10° NNE
Cosmos 1825 2.1 23:14:44 24° S 23:16:53 72° E 23:20:41 10° NNE
Cosmos 1340 4.1 23:15:33 19° SE 23:17:03 25° E 23:20:10 10° NE
NOSS 3-4 (A) 4.1 23:11:19 10° NW 23:18:03 55° SW 23:23:28 19° SSE
Cosmos 1624 Rocket 4.1 23:12:53 10° NNW 23:18:06 68° WSW 23:21:30 22° S
NOSS 3-4 (C) 4.1 23:11:26 10° NW 23:18:10 56° SW 23:23:36 19° SSE
Aureole 2 Rocket 1.8 23:16:55 10° NNW 23:19:45 83° WSW 23:20:49 35° SSE
BREEZE-M DEB (TANK) 4.1 23:23:12 10° W 23:26:13 15° WSW 23:27:09 14° SW
Cosmos 2369 Rocket 3.1 23:22:31 10° NNW 23:27:53 44° NE 23:33:13 10° ESE
Cosmos 1076 Rocket 4.3 23:24:18 13° SSW 23:27:55 48° WNW 23:32:05 10° N
Cosmos 1980 3.9 23:24:22 10° SW 23:30:00 75° WNW 23:35:42 10° NNE
Cosmos 1933 3.4 23:29:23 10° N 23:33:24 69° ENE 23:35:34 26° SSE
SL-4 R/B 1.8 23:33:31 26° E 23:33:43 26° ENE 23:35:33 10° N
EO 1 Delta rocket 4.3 23:29:27 10° N 23:34:29 81° WNW 23:39:14 17° SSW
Cosmos 2151 3.0 23:32:17 23° SSW 23:34:58 86° WNW 23:39:16 10° N
COSMOS 2455 3.0 23:30:35 10° NW 23:36:40 75° NE 23:41:47 15° SE
Helios 1A 3.7 23:34:08 20° SE 23:36:43 46° ENE 23:40:43 10° N
COSMOS 2428 4.2 23:32:45 10° WSW 23:38:00 37° NW 23:43:16 10° NNE
Thor Agena Rocket 3.6 23:32:59 10° NNE 23:38:07 77° WNW 23:42:04 17° SSW
Genesis I 3.2 23:35:47 12° SW 23:39:22 86° NW 23:43:18 10° NE
Cosmos 2341 Rocket 4.0 23:40:08 19° SSW 23:44:50 83° W 23:51:06 10° N
ATLAS 2AS CENTAUR R/B 3.4 23:38:43 10° NW 23:45:43 43° WSW 23:50:03 21° S
Cosmos 2237 Rocket 2.7 23:42:27 10° SW 23:48:05 62° NW 23:53:47 10° NNE
Cosmos 2219 Rocket 4.1 23:44:34 10° WSW 23:49:27 30° NW 23:54:23 10° NNE
Cosmos 1151 Rocket 3.0 23:45:54 10° NNW 23:50:16 77° W 23:52:34 27° S
Cosmos 1782 3.4 23:47:05 10° N 23:50:56 47° ENE 23:53:04 23° SE
USA 215 3.4 23:45:08 10° ENE 23:51:44 81° NNW 23:58:17 10° WSW
Cosmos 1408 Rocket 3.7 23:52:07 27° SSE 23:54:24 62° E 23:58:47 10° NNE
